Time,TemperatureF,DewpointF,PressureIn,WindDirection,WindDirectionDegrees,WindSpeedMPH,WindSpeedGustMPH,Humidity,HourlyPrecipIn,Conditions,Clouds,dailyrainin,SoftwareType,DateUTC
2013-12-08 00:00:00,41.8,34.8,30.43,East,82,0.0,0.0,76,0.00,,,0.28,VWS V14.01,2013-12-08 05:00:00,
2013-12-08 00:01:00,41.8,34.8,30.43,East,82,0.0,0.0,76,0.00,,,0.28,VWS V14.01,2013-12-08 05:01:00,
2013-12-08 00:02:00,41.8,34.8,30.42,East,82,0.0,0.0,76,0.00,,,0.28,VWS V14.01,2013-12-08 05:02:00,
2013-12-08 00:07:00,41.8,34.8,30.42,East,82,0.0,0.0,76,0.00,,,0.00,VWS V14.01,2013-12-08 05:07:00,
2013-12-08 00:12:00,41.7,35.0,30.42,NNE,33,0.0,0.0,77,0.00,,,0.00,VWS V14.01,2013-12-08 05:12:00,
2013-12-08 00:17:00,41.7,34.7,30.42,NNE,22,0.0,1.0,76,0.00,,,0.00,VWS V14.01,2013-12-08 05:17:00,
2013-12-08 00:22:00,41.7,34.7,30.42,NNE,21,0.0,0.0,76,0.00,,,0.00,VWS V14.01,2013-12-08 05:22:00,
2013-12-08 00:27:00,41.7,34.7,30.42,NNE,21,0.0,0.0,76,0.00,,,0.00,VWS V14.01,2013-12-08 05:27:00,
2013-12-08 00:32:00,41.6,34.6,30.41,ENE,57,0.0,0.0,76,0.00,,,0.00,VWS V14.01,2013-12-08 05:32:00,
2013-12-08 00:37:00,41.5,34.5,30.41,East,88,0.0,1.0,76,0.00,,,0.00,VWS V14.01,2013-12-08 05:37:00,
2013-12-08 00:42:00,41.5,34.2,30.41,ESE,116,0.0,1.0,75,0.00,,,0.00,VWS V14.01,2013-12-08 05:42:00,
2013-12-08 00:47:00,41.4,34.1,30.41,ESE,110,0.0,1.0,75,0.00,,,0.00,VWS V14.01,2013-12-08 05:47:00,
2013-12-08 00:52:00,41.3,33.7,30.41,ESE,110,0.0,0.0,74,0.00,,,0.00,VWS V14.01,2013-12-08 05:52:00,
2013-12-08 00:57:00,41.3,34.0,30.41,ESE,108,0.0,0.0,75,0.00,,,0.00,VWS V14.01,2013-12-08 05:57:00,
2013-12-08 01:02:00,41.2,33.9,30.41,ESE,107,0.0,1.0,75,0.00,,,0.00,VWS V14.01,2013-12-08 06:02:00,
2013-12-08 01:07:00,41.1,32.4,30.41,East,79,0.0,1.0,71,0.00,,,0.00,VWS V14.01,2013-12-08 06:07:00,
2013-12-08 01:12:00,41.0,31.6,30.41,North,0,0.0,2.0,69,0.00,,,0.00,VWS V14.01,2013-12-08 06:12:00,
2013-12-08 01:17:00,40.8,31.1,30.40,West,277,0.0,1.0,68,0.00,,,0.00,VWS V14.01,2013-12-08 06:17:00,
2013-12-08 01:22:00,40.7,31.0,30.40,East,94,0.0,2.0,68,0.00,,,0.00,VWS V14.01,2013-12-08 06:22:00,
2013-12-08 01:27:00,40.6,30.5,30.40,North,11,0.0,2.0,67,0.00,,,0.00,VWS V14.01,2013-12-08 06:27:00,
2013-12-08 01:32:00,40.5,30.4,30.41,East,81,0.0,1.0,67,0.00,,,0.00,VWS V14.01,2013-12-08 06:32:00,
2013-12-08 01:37:00,40.5,31.1,30.41,East,86,0.0,1.0,69,0.00,,,0.00,VWS V14.01,2013-12-08 06:37:00,
2013-12-08 01:42:00,40.4,30.7,30.41,ENE,68,0.0,2.0,68,0.00,,,0.00,VWS V14.01,2013-12-08 06:42:00,
2013-12-08 01:47:00,40.4,31.0,30.40,ENE,68,0.0,0.0,69,0.00,,,0.00,VWS V14.01,2013-12-08 06:47:00,
2013-12-08 01:52:00,40.4,31.0,30.40,NW,312,0.0,0.0,69,0.00,,,0.00,VWS V14.01,2013-12-08 06:52:00,
2013-12-08 01:57:00,40.3,31.0,30.40,ENE,70,0.0,1.0,69,0.00,,,0.00,VWS V14.01,2013-12-08 06:57:00,
2013-12-08 02:02:00,40.2,30.5,30.41,West,266,0.0,1.0,68,0.00,,,0.00,VWS V14.01,2013-12-08 07:02:00,
2013-12-08 02:07:00,40.1,31.1,30.41,ENE,77,0.0,2.0,70,0.00,,,0.00,VWS V14.01,2013-12-08 07:07:00,
2013-12-08 02:12:00,40.1,31.1,30.41,ENE,78,0.0,1.0,70,0.00,,,0.00,VWS V14.01,2013-12-08 07:12:00,
2013-12-08 02:17:00,40.0,31.0,30.40,WNW,295,0.0,2.0,70,0.00,,,0.00,VWS V14.01,2013-12-08 07:17:00,
2013-12-08 02:22:00,40.0,31.0,30.40,ESE,112,0.0,0.0,70,0.00,,,0.00,VWS V14.01,2013-12-08 07:22:00,
2013-12-08 02:27:00,40.0,31.4,30.40,ESE,103,0.0,0.0,71,0.00,,,0.00,VWS V14.01,2013-12-08 07:27:00,
2013-12-08 02:32:00,39.9,31.3,30.41,ENE,78,0.0,4.0,71,0.00,,,0.00,VWS V14.01,2013-12-08 07:32:00,
2013-12-08 02:37:00,39.8,31.5,30.41,East,99,0.0,1.0,72,0.00,,,0.00,VWS V14.01,2013-12-08 07:37:00,
2013-12-08 02:42:00,39.8,31.5,30.41,East,94,1.0,1.0,72,0.00,,,0.00,VWS V14.01,2013-12-08 07:42:00,
2013-12-08 02:47:00,39.7,31.1,30.40,ENE,71,0.0,1.0,71,0.00,,,0.00,VWS V14.01,2013-12-08 07:47:00,
2013-12-08 02:52:00,39.7,31.4,30.40,ESE,103,0.0,0.0,72,0.00,,,0.00,VWS V14.01,2013-12-08 07:52:00,
2013-12-08 02:57:00,39.6,31.3,30.40,ESE,103,0.0,0.0,72,0.00,,,0.00,VWS V14.01,2013-12-08 07:57:00,
2013-12-08 03:02:00,39.6,31.0,30.39,ESE,103,0.0,1.0,71,0.00,,,0.00,VWS V14.01,2013-12-08 08:02:00,
2013-12-08 03:07:00,39.6,31.3,30.39,ESE,103,0.0,0.0,72,0.00,,,0.00,VWS V14.01,2013-12-08 08:07:00,
2013-12-08 03:12:00,39.6,31.7,30.39,ESE,108,0.0,1.0,73,0.00,,,0.00,VWS V14.01,2013-12-08 08:12:00,
2013-12-08 03:17:00,39.5,31.2,30.38,East,86,0.0,1.0,72,0.00,,,0.00,VWS V14.01,2013-12-08 08:17:00,
2013-12-08 03:22:00,39.5,31.2,30.38,NW,311,0.0,0.0,72,0.00,,,0.00,VWS V14.01,2013-12-08 08:22:00,
2013-12-08 03:27:00,39.5,31.6,30.38,North,356,0.0,0.0,73,0.00,,,0.00,VWS V14.01,2013-12-08 08:27:00,
2013-12-08 03:32:00,39.4,30.8,30.38,East,81,0.0,2.0,71,0.00,,,0.00,VWS V14.01,2013-12-08 08:32:00,
2013-12-08 03:37:00,39.3,31.0,30.38,East,79,0.0,0.0,72,0.00,,,0.00,VWS V14.01,2013-12-08 08:37:00,
2013-12-08 03:42:00,39.3,31.0,30.38,East,79,0.0,0.0,72,0.00,,,0.00,VWS V14.01,2013-12-08 08:42:00,
2013-12-08 03:47:00,38.3,30.1,30.38,ESE,114,0.0,1.0,72,0.00,,,0.00,VWS V14.01,2013-12-08 08:47:00,
2013-12-08 03:52:00,38.3,30.1,30.39,ESE,114,0.0,0.0,72,0.00,,,0.00,VWS V14.01,2013-12-08 08:52:00,
2013-12-08 03:57:00,38.3,30.1,30.39,ESE,114,0.0,0.0,72,0.00,,,0.00,VWS V14.01,2013-12-08 08:57:00,
2013-12-08 04:02:00,38.3,30.1,30.37,ESE,114,0.0,0.0,72,0.00,,,0.00,VWS V14.01,2013-12-08 09:02:00,
2013-12-08 04:07:00,38.3,30.1,30.37,ESE,114,0.0,0.0,72,0.00,,,0.00,VWS V14.01,2013-12-08 09:07:00,
2013-12-08 04:12:00,38.3,30.1,30.37,ESE,114,0.0,0.0,72,0.00,,,0.00,VWS V14.01,2013-12-08 09:12:00,
2013-12-08 04:17:00,38.3,30.1,30.38,ESE,114,0.0,0.0,72,0.00,,,0.00,VWS V14.01,2013-12-08 09:17:00,
2013-12-08 04:22:00,38.3,30.1,30.38,ESE,114,0.0,0.0,72,0.00,,,0.00,VWS V14.01,2013-12-08 09:22:00,
2013-12-08 04:27:00,38.3,30.1,30.38,ESE,114,0.0,0.0,72,0.00,,,0.00,VWS V14.01,2013-12-08 09:27:00,
2013-12-08 04:32:00,38.3,30.1,30.38,ESE,114,0.0,0.0,72,0.00,,,0.00,VWS V14.01,2013-12-08 09:32:00,
2013-12-08 04:36:00,38.3,30.1,30.39,ESE,114,0.0,0.0,72,0.00,,,0.00,VWS V14.01,2013-12-08 09:36:00,
2013-12-08 04:41:00,38.3,30.1,30.39,ESE,114,0.0,0.0,72,0.00,,,0.00,VWS V14.01,2013-12-08 09:41:00,
2013-12-08 04:46:00,38.3,30.1,30.39,ESE,114,0.0,0.0,72,0.00,,,0.00,VWS V14.01,2013-12-08 09:46:00,
2013-12-08 04:51:00,38.3,30.1,30.38,ESE,114,0.0,0.0,72,0.00,,,0.00,VWS V14.01,2013-12-08 09:51:00,
2013-12-08 04:56:00,38.3,30.1,30.38,ESE,114,0.0,0.0,72,0.00,,,0.00,VWS V14.01,2013-12-08 09:56:00,
2013-12-08 05:01:00,38.3,30.1,30.38,ESE,114,0.0,0.0,72,0.00,,,0.00,VWS V14.01,2013-12-08 10:01:00,
2013-12-08 05:06:00,38.3,30.1,30.38,ESE,114,0.0,0.0,72,0.00,,,0.00,VWS V14.01,2013-12-08 10:06:00,
2013-12-08 05:12:00,38.3,30.1,30.38,ESE,114,0.0,0.0,72,0.00,,,0.00,VWS V14.01,2013-12-08 10:12:00,
2013-12-08 05:16:00,38.3,30.1,30.38,ESE,114,0.0,0.0,72,0.00,,,0.00,VWS V14.01,2013-12-08 10:16:00,
2013-12-08 05:21:00,38.3,30.1,30.39,ESE,114,0.0,0.0,72,0.00,,,0.00,VWS V14.01,2013-12-08 10:21:00,
2013-12-08 05:26:00,38.3,30.1,30.39,ESE,114,0.0,0.0,72,0.00,,,0.00,VWS V14.01,2013-12-08 10:26:00,
2013-12-08 05:31:00,38.3,30.1,30.39,ESE,114,0.0,0.0,72,0.00,,,0.00,VWS V14.01,2013-12-08 10:31:00,
2013-12-08 05:36:00,38.3,30.1,30.39,ESE,114,0.0,0.0,72,0.00,,,0.00,VWS V14.01,2013-12-08 10:36:00,
2013-12-08 05:41:00,38.3,30.1,30.39,ESE,114,0.0,0.0,72,0.00,,,0.00,VWS V14.01,2013-12-08 10:41:00,
2013-12-08 05:46:00,38.3,30.1,30.39,ESE,114,0.0,0.0,72,0.00,,,0.00,VWS V14.01,2013-12-08 10:46:00,
2013-12-08 05:51:00,38.3,30.1,30.39,ESE,114,0.0,0.0,72,0.00,,,0.00,VWS V14.01,2013-12-08 10:51:00,
2013-12-08 05:56:00,38.3,30.1,30.39,ESE,114,0.0,0.0,72,0.00,,,0.00,VWS V14.01,2013-12-08 10:56:00,
2013-12-08 06:01:00,38.3,30.1,30.39,ESE,114,0.0,0.0,72,0.00,,,0.00,VWS V14.01,2013-12-08 11:01:00,
2013-12-08 06:06:00,38.3,30.1,30.41,ESE,114,0.0,0.0,72,0.00,,,0.00,VWS V14.01,2013-12-08 11:06:00,
2013-12-08 06:11:00,38.3,30.1,30.41,ESE,114,0.0,0.0,72,0.00,,,0.00,VWS V14.01,2013-12-08 11:11:00,
2013-12-08 06:16:00,38.3,30.1,30.41,ESE,114,0.0,0.0,72,0.00,,,0.00,VWS V14.01,2013-12-08 11:16:00,
2013-12-08 06:21:00,38.3,30.1,30.41,ESE,114,0.0,0.0,72,0.00,,,0.00,VWS V14.01,2013-12-08 11:21:00,
2013-12-08 06:26:00,38.3,30.1,30.41,ESE,114,0.0,0.0,72,0.00,,,0.00,VWS V14.01,2013-12-08 11:26:00,
2013-12-08 06:31:00,38.3,30.1,30.41,ESE,114,0.0,0.0,72,0.00,,,0.00,VWS V14.01,2013-12-08 11:31:00,
2013-12-08 06:36:00,38.3,30.1,30.42,ESE,114,0.0,0.0,72,0.00,,,0.00,VWS V14.01,2013-12-08 11:36:00,
2013-12-08 06:41:00,38.3,30.1,30.42,ESE,114,0.0,0.0,72,0.00,,,0.00,VWS V14.01,2013-12-08 11:41:00,
2013-12-08 06:46:00,38.3,30.1,30.42,ESE,114,0.0,0.0,72,0.00,,,0.00,VWS V14.01,2013-12-08 11:46:00,
2013-12-08 06:51:00,38.3,30.1,30.41,ESE,114,0.0,0.0,72,0.00,,,0.00,VWS V14.01,2013-12-08 11:51:00,
2013-12-08 06:56:00,38.3,30.1,30.41,ESE,114,0.0,0.0,72,0.00,,,0.00,VWS V14.01,2013-12-08 11:56:00,
2013-12-08 07:01:00,38.3,30.1,30.41,ESE,114,0.0,0.0,72,0.00,,,0.00,VWS V14.01,2013-12-08 12:01:00,
2013-12-08 07:06:00,38.3,30.1,30.41,ESE,114,0.0,0.0,72,0.00,,,0.00,VWS V14.01,2013-12-08 12:06:00,
2013-12-08 07:11:00,38.3,30.1,30.41,ESE,114,0.0,0.0,72,0.00,,,0.00,VWS V14.01,2013-12-08 12:11:00,
2013-12-08 07:16:00,38.3,30.1,30.41,ESE,114,0.0,0.0,72,0.00,,,0.00,VWS V14.01,2013-12-08 12:16:00,
2013-12-08 07:21:00,38.3,30.1,30.41,ESE,114,0.0,0.0,72,0.00,,,0.00,VWS V14.01,2013-12-08 12:21:00,
2013-12-08 07:26:00,38.3,30.1,30.41,ESE,114,0.0,0.0,72,0.00,,,0.00,VWS V14.01,2013-12-08 12:26:00,
2013-12-08 07:31:00,38.3,30.1,30.41,ESE,114,0.0,0.0,72,0.00,,,0.00,VWS V14.01,2013-12-08 12:31:00,
2013-12-08 07:36:00,38.3,30.1,30.43,ESE,114,0.0,0.0,72,0.00,,,0.00,VWS V14.01,2013-12-08 12:36:00,
2013-12-08 07:41:00,38.3,30.1,30.43,ESE,114,0.0,0.0,72,0.00,,,0.00,VWS V14.01,2013-12-08 12:41:00,
2013-12-08 07:46:00,38.3,30.1,30.43,ESE,114,0.0,0.0,72,0.00,,,0.00,VWS V14.01,2013-12-08 12:46:00,
2013-12-08 07:51:00,38.3,30.1,30.42,ESE,114,0.0,0.0,72,0.00,,,0.00,VWS V14.01,2013-12-08 12:51:00,
2013-12-08 07:56:00,38.3,30.1,30.42,ESE,114,0.0,0.0,72,0.00,,,0.00,VWS V14.01,2013-12-08 12:56:00,
2013-12-08 08:01:00,38.3,30.1,30.42,ESE,114,0.0,0.0,72,0.00,,,0.00,VWS V14.01,2013-12-08 13:01:00,
2013-12-08 08:06:00,38.3,30.1,30.42,ESE,114,0.0,0.0,72,0.00,,,0.00,VWS V14.01,2013-12-08 13:06:00,
2013-12-08 08:11:00,38.3,30.1,30.42,ESE,114,0.0,0.0,72,0.00,,,0.00,VWS V14.01,2013-12-08 13:11:00,
2013-12-08 08:16:00,38.3,30.1,30.42,ESE,114,0.0,0.0,72,0.00,,,0.00,VWS V14.01,2013-12-08 13:16:00,
2013-12-08 08:21:00,38.3,30.1,30.42,ESE,114,0.0,0.0,72,0.00,,,0.00,VWS V14.01,2013-12-08 13:21:00,
2013-12-08 08:26:00,38.3,30.1,30.42,ESE,114,0.0,0.0,72,0.00,,,0.00,VWS V14.01,2013-12-08 13:26:00,
2013-12-08 08:31:00,38.3,30.1,30.42,ESE,114,0.0,0.0,72,0.00,,,0.00,VWS V14.01,2013-12-08 13:31:00,
2013-12-08 08:36:00,38.3,30.1,30.41,ESE,114,0.0,0.0,72,0.00,,,0.00,VWS V14.01,2013-12-08 13:36:00,
2013-12-08 08:41:00,38.3,30.1,30.41,ESE,114,0.0,0.0,72,0.00,,,0.00,VWS V14.01,2013-12-08 13:41:00,
2013-12-08 08:46:00,38.3,30.1,30.41,ESE,114,0.0,0.0,72,0.00,,,0.00,VWS V14.01,2013-12-08 13:46:00,
2013-12-08 08:51:00,38.3,30.1,30.43,ESE,114,0.0,0.0,72,0.00,,,0.00,VWS V14.01,2013-12-08 13:51:00,
2013-12-08 08:56:00,38.3,30.1,30.43,ESE,114,0.0,0.0,72,0.00,,,0.00,VWS V14.01,2013-12-08 13:56:00,
2013-12-08 09:01:00,33.2,30.9,30.43,NNW,340,0.0,0.0,91,0.00,,,0.00,VWS V14.01,2013-12-08 14:01:00,
2013-12-08 09:06:00,33.2,30.9,30.43,North,6,0.0,1.0,91,0.00,,,0.00,VWS V14.01,2013-12-08 14:06:00,
2013-12-08 09:11:00,33.2,31.1,30.43,NNE,19,0.0,1.0,92,0.00,,,0.00,VWS V14.01,2013-12-08 14:11:00,
2013-12-08 09:16:00,33.3,31.2,30.43,NNE,19,0.0,0.0,92,0.00,,,0.00,VWS V14.01,2013-12-08 14:16:00,
2013-12-08 09:21:00,33.4,31.3,30.43,ENE,76,0.0,0.0,92,0.01,,,0.01,VWS V14.01,2013-12-08 14:21:00,
2013-12-08 09:26:00,33.4,31.3,30.43,ENE,76,0.0,0.0,92,0.01,,,0.01,VWS V14.01,2013-12-08 14:26:00,
2013-12-08 09:31:00,33.4,31.3,30.43,ENE,75,0.0,0.0,92,0.02,,,0.02,VWS V14.01,2013-12-08 14:31:00,
2013-12-08 09:36:00,33.3,31.2,30.43,East,82,0.0,1.0,92,0.06,,,0.06,VWS V14.01,2013-12-08 14:36:00,
2013-12-08 09:41:00,33.2,31.1,30.43,ENE,76,0.0,0.0,92,0.07,,,0.07,VWS V14.01,2013-12-08 14:41:00,
2013-12-08 09:46:00,33.1,31.0,30.43,ENE,75,0.0,0.0,92,0.17,,,0.17,VWS V14.01,2013-12-08 14:46:00,
2013-12-08 09:51:00,33.0,30.9,30.45,ENE,75,0.0,0.0,92,0.17,,,0.17,VWS V14.01,2013-12-08 14:51:00,
2013-12-08 09:56:00,32.9,30.8,30.45,East,85,0.0,0.0,92,0.21,,,0.21,VWS V14.01,2013-12-08 14:56:00,
2013-12-08 10:01:00,32.8,31.0,30.45,East,82,0.0,0.0,93,0.23,,,0.23,VWS V14.01,2013-12-08 15:01:00,
2013-12-08 10:06:00,32.9,31.1,30.44,East,82,0.0,1.0,93,0.24,,,0.24,VWS V14.01,2013-12-08 15:06:00,
2013-12-08 10:11:00,33.1,31.3,30.44,ESE,107,0.0,0.0,93,0.24,,,0.24,VWS V14.01,2013-12-08 15:11:00,
2013-12-08 10:16:00,33.2,31.4,30.44,East,90,0.0,1.0,93,0.24,,,0.24,VWS V14.01,2013-12-08 15:16:00,
2013-12-08 10:21:00,33.3,31.5,30.42,ENE,75,0.0,0.0,93,0.25,,,0.25,VWS V14.01,2013-12-08 15:21:00,
2013-12-08 10:26:00,33.4,31.6,30.42,ENE,74,0.0,0.0,93,0.24,,,0.25,VWS V14.01,2013-12-08 15:26:00,
2013-12-08 10:31:00,33.5,31.7,30.42,ENE,77,0.0,1.0,93,0.24,,,0.25,VWS V14.01,2013-12-08 15:31:00,
2013-12-08 10:36:00,33.5,31.7,30.41,East,85,0.0,1.0,93,0.21,,,0.25,VWS V14.01,2013-12-08 15:36:00,
2013-12-08 10:41:00,33.4,31.6,30.41,ESE,103,0.0,1.0,93,0.18,,,0.25,VWS V14.01,2013-12-08 15:41:00,
2013-12-08 10:46:00,33.4,31.6,30.41,ESE,122,0.0,1.0,93,0.16,,,0.25,VWS V14.01,2013-12-08 15:46:00,
2013-12-08 10:51:00,33.4,31.6,30.42,SE,140,0.0,0.0,93,0.08,,,0.25,VWS V14.01,2013-12-08 15:51:00,
2013-12-08 10:56:00,33.4,31.6,30.42,NW,318,0.0,1.0,93,0.08,,,0.25,VWS V14.01,2013-12-08 15:56:00,
2013-12-08 11:01:00,33.3,31.5,30.42,East,88,0.0,1.0,93,0.03,,,0.25,VWS V14.01,2013-12-08 16:01:00,
2013-12-08 11:06:00,33.3,31.5,30.42,East,87,0.0,0.0,93,0.02,,,0.25,VWS V14.01,2013-12-08 16:06:00,
2013-12-08 11:11:00,33.2,31.4,30.42,East,86,0.0,1.0,93,0.01,,,0.25,VWS V14.01,2013-12-08 16:11:00,
2013-12-08 11:16:00,33.2,31.4,30.42,East,94,0.0,1.0,93,0.01,,,0.25,VWS V14.01,2013-12-08 16:16:00,
2013-12-08 11:21:00,33.1,31.3,30.43,North,6,0.0,2.0,93,0.01,,,0.25,VWS V14.01,2013-12-08 16:21:00,
2013-12-08 11:26:00,33.1,31.3,30.43,East,86,0.0,1.0,93,0.00,,,0.25,VWS V14.01,2013-12-08 16:26:00,
2013-12-08 11:31:00,33.2,31.4,30.43,East,86,0.0,1.0,93,0.00,,,0.25,VWS V14.01,2013-12-08 16:31:00,
2013-12-08 11:36:00,33.3,31.8,30.42,ENE,68,0.0,1.0,94,0.00,,,0.25,VWS V14.01,2013-12-08 16:36:00,
2013-12-08 11:41:00,33.3,31.8,30.42,ENE,68,0.0,0.0,94,0.00,,,0.25,VWS V14.01,2013-12-08 16:41:00,
2013-12-08 11:46:00,33.5,32.0,30.42,ENE,71,0.0,1.0,94,0.01,,,0.26,VWS V14.01,2013-12-08 16:46:00,
2013-12-08 11:51:00,33.5,32.0,30.40,ENE,72,0.0,0.0,94,0.01,,,0.26,VWS V14.01,2013-12-08 16:51:00,
2013-12-08 11:56:00,33.6,32.1,30.40,ENE,72,0.0,0.0,94,0.02,,,0.27,VWS V14.01,2013-12-08 16:56:00,
2013-12-08 12:01:00,33.6,32.1,30.40,East,99,0.0,1.0,94,0.02,,,0.27,VWS V14.01,2013-12-08 17:01:00,
2013-12-08 12:06:00,33.6,32.1,30.40,East,94,0.0,1.0,94,0.03,,,0.28,VWS V14.01,2013-12-08 17:06:00,
2013-12-08 12:11:00,33.6,32.1,30.40,SE,127,1.0,1.0,94,0.03,,,0.28,VWS V14.01,2013-12-08 17:11:00,
2013-12-08 12:16:00,33.5,31.7,30.40,East,81,0.0,0.0,93,0.03,,,0.28,VWS V14.01,2013-12-08 17:16:00,
2013-12-08 12:21:00,33.5,32.0,30.39,East,81,0.0,1.0,94,0.03,,,0.28,VWS V14.01,2013-12-08 17:21:00,
2013-12-08 12:26:00,33.5,32.0,30.39,East,79,0.0,0.0,94,0.03,,,0.28,VWS V14.01,2013-12-08 17:26:00,
2013-12-08 12:31:00,33.5,31.7,30.39,East,86,0.0,0.0,93,0.03,,,0.28,VWS V14.01,2013-12-08 17:31:00,
2013-12-08 12:36:00,33.4,31.6,30.39,East,99,0.0,1.0,93,0.03,,,0.28,VWS V14.01,2013-12-08 17:36:00,
2013-12-08 12:41:00,33.5,32.0,30.39,East,97,0.0,0.0,94,0.03,,,0.28,VWS V14.01,2013-12-08 17:41:00,
2013-12-08 12:46:00,33.7,32.2,30.39,East,98,0.0,0.0,94,0.03,,,0.28,VWS V14.01,2013-12-08 17:46:00,
2013-12-08 12:51:00,33.7,32.2,30.38,East,98,0.0,0.0,94,0.02,,,0.28,VWS V14.01,2013-12-08 17:51:00,
2013-12-08 12:56:00,33.8,32.3,30.38,East,98,0.0,0.0,94,0.03,,,0.29,VWS V14.01,2013-12-08 17:56:00,
2013-12-08 13:02:00,34.0,32.5,30.38,East,98,0.0,0.0,94,0.02,,,0.29,VWS V14.01,2013-12-08 18:02:00,
2013-12-08 13:07:00,34.1,32.6,30.37,East,98,0.0,0.0,94,0.02,,,0.29,VWS V14.01,2013-12-08 18:07:00,
2013-12-08 13:12:00,34.2,32.7,30.37,East,97,0.0,1.0,94,0.01,,,0.29,VWS V14.01,2013-12-08 18:12:00,
2013-12-08 13:17:00,34.2,32.7,30.37,East,98,0.0,0.0,94,0.01,,,0.29,VWS V14.01,2013-12-08 18:17:00,
2013-12-08 13:22:00,34.1,32.6,30.36,East,81,0.0,1.0,94,0.01,,,0.29,VWS V14.01,2013-12-08 18:22:00,
2013-12-08 13:27:00,34.0,32.5,30.36,ESE,114,0.0,0.0,94,0.01,,,0.29,VWS V14.01,2013-12-08 18:27:00,
2013-12-08 13:32:00,34.0,32.5,30.36,East,87,0.0,0.0,94,0.01,,,0.29,VWS V14.01,2013-12-08 18:32:00,
2013-12-08 13:37:00,34.0,32.5,30.36,NW,304,0.0,1.0,94,0.02,,,0.30,VWS V14.01,2013-12-08 18:37:00,
2013-12-08 13:42:00,34.0,32.5,30.36,NNW,340,0.0,1.0,94,0.02,,,0.30,VWS V14.01,2013-12-08 18:42:00,
2013-12-08 13:47:00,33.9,32.4,30.36,East,92,0.0,0.0,94,0.02,,,0.30,VWS V14.01,2013-12-08 18:47:00,
2013-12-08 13:52:00,33.8,32.3,30.37,ENE,78,0.0,0.0,94,0.03,,,0.31,VWS V14.01,2013-12-08 18:52:00,
2013-12-08 13:57:00,33.9,32.4,30.37,ENE,78,0.0,0.0,94,0.04,,,0.32,VWS V14.01,2013-12-08 18:57:00,
2013-12-08 14:02:00,33.9,32.4,30.37,East,81,0.0,1.0,94,0.03,,,0.32,VWS V14.01,2013-12-08 19:02:00,
2013-12-08 14:07:00,33.9,32.4,30.36,East,79,0.0,0.0,94,0.04,,,0.33,VWS V14.01,2013-12-08 19:07:00,
2013-12-08 14:11:00,33.9,32.4,30.36,East,81,0.0,0.0,94,0.04,,,0.33,VWS V14.01,2013-12-08 19:11:00,
2013-12-08 14:16:00,34.1,32.6,30.36,ENE,78,1.0,1.0,94,0.05,,,0.34,VWS V14.01,2013-12-08 19:16:00,
2013-12-08 14:21:00,34.0,32.5,30.36,East,79,0.0,0.0,94,0.05,,,0.34,VWS V14.01,2013-12-08 19:21:00,
2013-12-08 14:26:00,34.1,32.6,30.36,SW,230,0.0,1.0,94,0.05,,,0.34,VWS V14.01,2013-12-08 19:26:00,
2013-12-08 14:31:00,34.1,32.6,30.36,SW,231,0.0,0.0,94,0.05,,,0.34,VWS V14.01,2013-12-08 19:31:00,
2013-12-08 14:36:00,34.2,32.7,30.36,SE,124,0.0,0.0,94,0.06,,,0.35,VWS V14.01,2013-12-08 19:36:00,
2013-12-08 14:41:00,34.1,32.6,30.36,East,100,0.0,0.0,94,0.05,,,0.35,VWS V14.01,2013-12-08 19:41:00,
2013-12-08 14:46:00,34.1,32.6,30.36,East,100,0.0,0.0,94,0.05,,,0.35,VWS V14.01,2013-12-08 19:46:00,
2013-12-08 14:51:00,34.2,32.7,30.36,East,100,0.0,1.0,94,0.05,,,0.35,VWS V14.01,2013-12-08 19:51:00,
2013-12-08 14:56:00,34.1,32.6,30.36,ENE,65,0.0,0.0,94,0.04,,,0.35,VWS V14.01,2013-12-08 19:56:00,
2013-12-08 15:01:00,34.2,32.7,30.36,ENE,65,0.0,0.0,94,0.03,,,0.35,VWS V14.01,2013-12-08 20:01:00,
2013-12-08 15:06:00,34.3,32.8,30.34,ENE,65,0.0,0.0,94,0.03,,,0.35,VWS V14.01,2013-12-08 20:06:00,
2013-12-08 15:11:00,34.3,32.8,30.34,ENE,76,0.0,0.0,94,0.02,,,0.35,VWS V14.01,2013-12-08 20:11:00,
2013-12-08 15:16:00,34.4,32.9,30.34,ENE,76,0.0,0.0,94,0.02,,,0.35,VWS V14.01,2013-12-08 20:16:00,
2013-12-08 15:21:00,34.4,32.9,30.35,ENE,77,0.0,0.0,94,0.01,,,0.35,VWS V14.01,2013-12-08 20:21:00,
2013-12-08 15:26:00,34.4,32.9,30.35,ENE,72,0.0,1.0,94,0.01,,,0.35,VWS V14.01,2013-12-08 20:26:00,
2013-12-08 15:31:00,34.3,32.8,30.35,East,79,0.0,1.0,94,0.01,,,0.35,VWS V14.01,2013-12-08 20:31:00,
2013-12-08 15:36:00,34.1,32.6,30.35,East,94,0.0,0.0,94,0.01,,,0.35,VWS V14.01,2013-12-08 20:36:00,
2013-12-08 15:41:00,34.1,32.6,30.35,East,90,0.0,0.0,94,0.00,,,0.35,VWS V14.01,2013-12-08 20:41:00,
2013-12-08 15:46:00,34.1,32.6,30.35,ENE,78,0.0,0.0,94,0.00,,,0.35,VWS V14.01,2013-12-08 20:46:00,
2013-12-08 15:51:00,34.0,32.5,30.34,NE,46,0.0,0.0,94,0.00,,,0.35,VWS V14.01,2013-12-08 20:51:00,
2013-12-08 15:56:00,33.9,32.4,30.34,NE,46,0.0,0.0,94,0.00,,,0.35,VWS V14.01,2013-12-08 20:56:00,
2013-12-08 16:01:00,33.9,32.4,30.34,NE,47,0.0,0.0,94,0.00,,,0.35,VWS V14.01,2013-12-08 21:01:00,
2013-12-08 16:06:00,33.8,32.3,30.35,ENE,61,0.0,0.0,94,0.00,,,0.35,VWS V14.01,2013-12-08 21:06:00,
2013-12-08 16:11:00,33.8,32.3,30.35,ENE,61,0.0,0.0,94,0.00,,,0.35,VWS V14.01,2013-12-08 21:11:00,
2013-12-08 16:16:00,33.7,32.2,30.35,ENE,61,0.0,0.0,94,0.00,,,0.35,VWS V14.01,2013-12-08 21:16:00,
2013-12-08 16:21:00,33.7,32.2,30.33,ENE,61,0.0,0.0,94,0.00,,,0.35,VWS V14.01,2013-12-08 21:21:00,
2013-12-08 16:26:00,33.7,32.2,30.33,ENE,61,0.0,0.0,94,0.00,,,0.35,VWS V14.01,2013-12-08 21:26:00,
2013-12-08 16:31:00,33.9,32.6,30.33,ENE,61,0.0,0.0,95,0.00,,,0.35,VWS V14.01,2013-12-08 21:31:00,
2013-12-08 16:36:00,33.9,32.6,30.34,ENE,61,0.0,0.0,95,0.00,,,0.35,VWS V14.01,2013-12-08 21:36:00,
2013-12-08 16:41:00,33.8,32.3,30.34,ENE,61,0.0,1.0,94,0.00,,,0.35,VWS V14.01,2013-12-08 21:41:00,
2013-12-08 16:46:00,33.7,32.2,30.34,ENE,63,0.0,0.0,94,0.00,,,0.35,VWS V14.01,2013-12-08 21:46:00,
2013-12-08 16:51:00,33.6,32.1,30.34,ENE,62,0.0,0.0,94,0.00,,,0.35,VWS V14.01,2013-12-08 21:51:00,
2013-12-08 16:56:00,33.4,31.9,30.34,ENE,62,0.0,0.0,94,0.00,,,0.35,VWS V14.01,2013-12-08 21:56:00,
2013-12-08 17:01:00,33.5,32.0,30.34,ENE,63,0.0,0.0,94,0.00,,,0.35,VWS V14.01,2013-12-08 22:01:00,
2013-12-08 17:06:00,33.5,32.0,30.34,East,86,0.0,0.0,94,0.00,,,0.35,VWS V14.01,2013-12-08 22:06:00,
2013-12-08 17:11:00,33.4,31.9,30.34,East,86,0.0,0.0,94,0.00,,,0.35,VWS V14.01,2013-12-08 22:11:00,
2013-12-08 17:16:00,33.4,32.1,30.34,East,92,0.0,0.0,95,0.00,,,0.35,VWS V14.01,2013-12-08 22:16:00,
2013-12-08 17:21:00,33.3,31.8,30.34,East,89,0.0,0.0,94,0.00,,,0.35,VWS V14.01,2013-12-08 22:21:00,
2013-12-08 17:26:00,33.3,31.8,30.34,East,89,0.0,0.0,94,0.00,,,0.35,VWS V14.01,2013-12-08 22:26:00,
2013-12-08 17:31:00,33.3,31.8,30.34,ENE,75,0.0,0.0,94,0.00,,,0.35,VWS V14.01,2013-12-08 22:31:00,
2013-12-08 17:36:00,33.3,32.0,30.34,ENE,75,0.0,0.0,95,0.00,,,0.35,VWS V14.01,2013-12-08 22:36:00,
2013-12-08 17:41:00,33.3,32.0,30.34,ENE,75,0.0,0.0,95,0.00,,,0.35,VWS V14.01,2013-12-08 22:41:00,
2013-12-08 17:46:00,33.3,32.0,30.34,ENE,75,0.0,0.0,95,0.01,,,0.36,VWS V14.01,2013-12-08 22:46:00,
2013-12-08 17:51:00,33.4,32.1,30.34,ENE,75,0.0,0.0,95,0.01,,,0.36,VWS V14.01,2013-12-08 22:51:00,
2013-12-08 17:56:00,33.4,32.1,30.34,ENE,75,0.0,0.0,95,0.01,,,0.36,VWS V14.01,2013-12-08 22:56:00,
2013-12-08 18:01:00,33.4,32.1,30.34,East,98,0.0,0.0,95,0.01,,,0.36,VWS V14.01,2013-12-08 23:01:00,
2013-12-08 18:06:00,33.3,32.0,30.33,East,94,0.0,0.0,95,0.01,,,0.36,VWS V14.01,2013-12-08 23:06:00,
2013-12-08 18:11:00,33.3,32.0,30.33,East,94,0.0,0.0,95,0.01,,,0.36,VWS V14.01,2013-12-08 23:11:00,
2013-12-08 18:16:00,33.3,32.0,30.33,East,92,0.0,0.0,95,0.01,,,0.36,VWS V14.01,2013-12-08 23:16:00,
2013-12-08 18:21:00,33.3,32.0,30.33,East,92,0.0,0.0,95,0.01,,,0.36,VWS V14.01,2013-12-08 23:21:00,
2013-12-08 18:26:00,33.1,31.8,30.33,East,100,0.0,1.0,95,0.01,,,0.36,VWS V14.01,2013-12-08 23:26:00,
2013-12-08 18:31:00,33.1,31.8,30.33,East,100,0.0,0.0,95,0.01,,,0.36,VWS V14.01,2013-12-08 23:31:00,
2013-12-08 18:36:00,33.1,31.8,30.33,ENE,65,0.0,0.0,95,0.01,,,0.36,VWS V14.01,2013-12-08 23:36:00,
2013-12-08 18:41:00,33.1,31.8,30.33,ENE,70,0.0,0.0,95,0.01,,,0.36,VWS V14.01,2013-12-08 23:41:00,
2013-12-08 18:46:00,33.1,31.8,30.33,ENE,70,0.0,0.0,95,0.01,,,0.36,VWS V14.01,2013-12-08 23:46:00,
2013-12-08 18:51:00,33.1,31.8,30.32,ENE,69,0.0,0.0,95,0.00,,,0.36,VWS V14.01,2013-12-08 23:51:00,
2013-12-08 18:56:00,33.1,31.8,30.32,ENE,70,0.0,0.0,95,0.00,,,0.36,VWS V14.01,2013-12-08 23:56:00,
2013-12-08 19:01:00,33.1,31.8,30.32,ENE,70,0.0,0.0,95,0.00,,,0.36,VWS V14.01,2013-12-09 00:01:00,
2013-12-08 19:06:00,33.1,31.8,30.33,ENE,70,0.0,0.0,95,0.00,,,0.36,VWS V14.01,2013-12-09 00:06:00,
2013-12-08 19:11:00,33.1,31.8,30.33,ENE,70,0.0,0.0,95,0.00,,,0.36,VWS V14.01,2013-12-09 00:11:00,
2013-12-08 19:16:00,33.0,31.7,30.33,ENE,69,0.0,0.0,95,0.00,,,0.36,VWS V14.01,2013-12-09 00:16:00,
2013-12-08 19:21:00,33.0,31.7,30.33,ENE,69,0.0,0.0,95,0.00,,,0.36,VWS V14.01,2013-12-09 00:21:00,
2013-12-08 19:26:00,33.0,31.7,30.33,ENE,69,0.0,0.0,95,0.00,,,0.36,VWS V14.01,2013-12-09 00:26:00,
2013-12-08 19:31:00,33.1,31.8,30.33,ENE,69,0.0,0.0,95,0.00,,,0.36,VWS V14.01,2013-12-09 00:31:00,
2013-12-08 19:36:00,33.1,31.8,30.33,ENE,70,0.0,0.0,95,0.00,,,0.36,VWS V14.01,2013-12-09 00:36:00,
2013-12-08 19:41:00,33.2,31.9,30.33,SW,218,0.0,1.0,95,0.00,,,0.36,VWS V14.01,2013-12-09 00:41:00,
2013-12-08 19:46:00,33.3,32.0,30.33,SW,218,0.0,0.0,95,0.00,,,0.36,VWS V14.01,2013-12-09 00:46:00,
2013-12-08 19:51:00,33.4,32.1,30.33,SW,218,0.0,0.0,95,0.00,,,0.36,VWS V14.01,2013-12-09 00:51:00,
2013-12-08 19:56:00,33.4,32.1,30.33,SW,218,0.0,0.0,95,0.00,,,0.36,VWS V14.01,2013-12-09 00:56:00,
2013-12-08 20:01:00,33.4,32.1,30.33,SW,218,0.0,0.0,95,0.00,,,0.36,VWS V14.01,2013-12-09 01:01:00,
2013-12-08 20:06:00,33.4,32.1,30.33,SSE,162,0.0,0.0,95,0.00,,,0.36,VWS V14.01,2013-12-09 01:06:00,
2013-12-08 20:11:00,33.4,32.1,30.33,SSE,162,0.0,0.0,95,0.00,,,0.36,VWS V14.01,2013-12-09 01:11:00,
2013-12-08 20:16:00,33.4,32.1,30.33,SSE,162,0.0,0.0,95,0.00,,,0.36,VWS V14.01,2013-12-09 01:16:00,
2013-12-08 20:21:00,33.4,32.1,30.33,SSE,162,0.0,0.0,95,0.00,,,0.36,VWS V14.01,2013-12-09 01:21:00,
2013-12-08 20:26:00,33.4,32.1,30.33,SSE,162,0.0,0.0,95,0.00,,,0.36,VWS V14.01,2013-12-09 01:26:00,
2013-12-08 20:31:00,33.3,32.0,30.33,SSE,162,0.0,0.0,95,0.00,,,0.36,VWS V14.01,2013-12-09 01:31:00,
2013-12-08 20:36:00,33.3,32.0,30.33,SSE,162,0.0,0.0,95,0.00,,,0.36,VWS V14.01,2013-12-09 01:36:00,
2013-12-08 20:41:00,33.3,32.0,30.33,SSE,162,0.0,0.0,95,0.00,,,0.36,VWS V14.01,2013-12-09 01:41:00,
2013-12-08 20:46:00,33.3,32.0,30.33,SSE,162,0.0,0.0,95,0.00,,,0.36,VWS V14.01,2013-12-09 01:46:00,
2013-12-08 20:51:00,33.3,32.0,30.32,SSE,162,0.0,0.0,95,0.00,,,0.36,VWS V14.01,2013-12-09 01:51:00,
2013-12-08 20:56:00,33.3,32.0,30.32,SSE,160,0.0,0.0,95,0.00,,,0.36,VWS V14.01,2013-12-09 01:56:00,
2013-12-08 21:01:00,33.4,32.1,30.32,SSE,161,0.0,0.0,95,0.00,,,0.36,VWS V14.01,2013-12-09 02:01:00,
2013-12-08 21:06:00,33.4,32.1,30.31,SSE,161,0.0,0.0,95,0.00,,,0.36,VWS V14.01,2013-12-09 02:06:00,
2013-12-08 21:11:00,33.4,32.1,30.31,SSE,160,0.0,0.0,95,0.00,,,0.36,VWS V14.01,2013-12-09 02:11:00,
2013-12-08 21:16:00,33.3,32.0,30.31,SSE,152,0.0,0.0,95,0.00,,,0.36,VWS V14.01,2013-12-09 02:16:00,
2013-12-08 21:21:00,33.3,32.0,30.30,SSE,153,0.0,0.0,95,0.00,,,0.36,VWS V14.01,2013-12-09 02:21:00,
2013-12-08 21:26:00,33.3,32.0,30.30,SSE,163,0.0,0.0,95,0.00,,,0.36,VWS V14.01,2013-12-09 02:26:00,
2013-12-08 21:31:00,33.3,32.0,30.30,SSE,163,0.0,0.0,95,0.00,,,0.36,VWS V14.01,2013-12-09 02:31:00,
2013-12-08 21:36:00,33.4,32.1,30.31,SSE,164,0.0,0.0,95,0.00,,,0.36,VWS V14.01,2013-12-09 02:36:00,
2013-12-08 21:41:00,33.4,32.4,30.31,SSE,163,0.0,0.0,96,0.00,,,0.36,VWS V14.01,2013-12-09 02:41:00,
2013-12-08 21:46:00,33.5,32.5,30.31,SSE,164,0.0,0.0,96,0.00,,,0.36,VWS V14.01,2013-12-09 02:46:00,
2013-12-08 21:51:00,33.6,32.6,30.32,SSE,163,0.0,0.0,96,0.00,,,0.36,VWS V14.01,2013-12-09 02:51:00,
2013-12-08 21:56:00,33.6,32.6,30.32,SSE,163,0.0,0.0,96,0.00,,,0.36,VWS V14.01,2013-12-09 02:56:00,
2013-12-08 22:01:00,33.6,32.6,30.32,SSE,164,0.0,0.0,96,0.00,,,0.36,VWS V14.01,2013-12-09 03:01:00,
2013-12-08 22:06:00,33.6,32.6,30.32,SSE,163,0.0,0.0,96,0.00,,,0.36,VWS V14.01,2013-12-09 03:06:00,
2013-12-08 22:11:00,33.6,32.6,30.32,SSE,163,0.0,0.0,96,0.01,,,0.37,VWS V14.01,2013-12-09 03:11:00,
2013-12-08 22:16:00,33.6,32.3,30.32,SSE,163,0.0,0.0,95,0.01,,,0.37,VWS V14.01,2013-12-09 03:16:00,
2013-12-08 22:21:00,33.6,32.3,30.30,SSE,163,0.0,0.0,95,0.01,,,0.37,VWS V14.01,2013-12-09 03:21:00,
2013-12-08 22:26:00,33.6,32.3,30.30,SSE,164,0.0,0.0,95,0.01,,,0.37,VWS V14.01,2013-12-09 03:26:00,
2013-12-08 22:31:00,33.6,32.6,30.30,SSE,163,0.0,0.0,96,0.01,,,0.37,VWS V14.01,2013-12-09 03:31:00,
2013-12-08 22:36:00,33.6,32.6,30.30,SSE,163,0.0,0.0,96,0.01,,,0.37,VWS V14.01,2013-12-09 03:36:00,
2013-12-08 22:41:00,33.6,32.6,30.30,SSE,163,0.0,0.0,96,0.01,,,0.37,VWS V14.01,2013-12-09 03:41:00,
2013-12-08 22:46:00,33.6,32.6,30.30,SSE,164,0.0,0.0,96,0.01,,,0.37,VWS V14.01,2013-12-09 03:46:00,
2013-12-08 22:51:00,33.6,32.6,30.29,SSE,164,0.0,0.0,96,0.01,,,0.37,VWS V14.01,2013-12-09 03:51:00,
2013-12-08 22:56:00,33.5,32.2,30.29,SSE,164,0.0,0.0,95,0.01,,,0.37,VWS V14.01,2013-12-09 03:56:00,
2013-12-08 23:01:00,33.5,32.2,30.29,SSE,163,0.0,0.0,95,0.01,,,0.37,VWS V14.01,2013-12-09 04:01:00,
2013-12-08 23:06:00,33.6,32.6,30.30,SSE,163,0.0,0.0,96,0.01,,,0.37,VWS V14.01,2013-12-09 04:06:00,
2013-12-08 23:11:00,33.6,32.6,30.30,SSE,163,0.0,0.0,96,0.01,,,0.37,VWS V14.01,2013-12-09 04:11:00,
2013-12-08 23:16:00,33.6,32.6,30.30,SSE,163,0.0,0.0,96,0.00,,,0.37,VWS V14.01,2013-12-09 04:16:00,
2013-12-08 23:21:00,33.7,32.7,30.29,SSE,163,0.0,0.0,96,0.00,,,0.37,VWS V14.01,2013-12-09 04:21:00,
2013-12-08 23:26:00,33.7,32.7,30.29,SSE,163,0.0,0.0,96,0.00,,,0.37,VWS V14.01,2013-12-09 04:26:00,
2013-12-08 23:31:00,33.7,32.7,30.29,SSE,164,0.0,0.0,96,0.00,,,0.37,VWS V14.01,2013-12-09 04:31:00,
2013-12-08 23:36:00,33.8,32.8,30.30,SSE,163,0.0,0.0,96,0.00,,,0.37,VWS V14.01,2013-12-09 04:36:00,
2013-12-08 23:41:00,33.8,32.8,30.30,SSE,163,0.0,0.0,96,0.00,,,0.37,VWS V14.01,2013-12-09 04:41:00,
2013-12-08 23:46:00,33.8,32.8,30.30,SSE,163,0.0,0.0,96,0.00,,,0.37,VWS V14.01,2013-12-09 04:46:00,
2013-12-08 23:51:00,33.8,32.8,30.28,SSE,163,0.0,0.0,96,0.00,,,0.37,VWS V14.01,2013-12-09 04:51:00,
2013-12-08 23:56:00,33.8,32.8,30.28,SSE,163,0.0,0.0,96,0.00,,,0.37,VWS V14.01,2013-12-09 04:56:00,